DW4691 Weather Reports


Display with metric or nautical units.
time (UTC)temp
F
wind
direction
speed
MPH
gust
MPH
rain 1hr
in
rain 24hr
in
rain mn
in
humidity
%
barometer
mb
20260905234558 82 0 0.0 0.0 0.00 0.00 0.00 82 1012.0
20260905233053 82 0 0.0 0.0 0.00 0.00 0.00 82 1012.1
20260905231556 82 0 0.0 0.0 0.00 0.00 0.00 82 1012.2
20260905230055 82 0 0.0 0.0 0.00 0.00 0.00 82 1012.0
20260905224605 82 0 0.0 0.0 0.00 0.00 0.00 80 1012.0
20260905223055 84 0 0.0 1.0 0.00 0.00 0.00 78 1011.7
20260905221601 87 0 0.0 2.0 0.00 0.00 0.00 71 1011.6
20260905220104 91 0 0.0 6.0 0.00 0.00 0.00 65 1011.6
20260905214559 94 0 0.0 3.0 0.00 0.00 0.00 62 1011.3
20260905213106 95 0 0.0 0.0 0.00 0.00 0.00 57 1011.1
20260905211612 95 0 0.0 0.0 0.00 0.00 0.00 57 1011.3
20260905210054 95 0 0.0 0.0 0.00 0.00 0.00 58 1011.2
20260905204557 96 0 0.0 0.0 0.00 0.00 0.00 57 1011.2
20260905203117 96 0 0.0 0.0 0.00 0.00 0.00 55 1011.4
20260905201558 96 0 0.0 2.0 0.00 0.00 0.00 55 1011.6
20260905200058 96 0 0.0 3.0 0.00 0.00 0.00 56 1011.9
20260905194549 95 0 0.0 0.0 0.00 0.00 0.00 58 1011.8
20260905193054 94 0 0.0 0.0 0.00 0.00 0.00 60 1012.0
20260905191554 93 0 0.0 0.0 0.00 0.00 0.00 60 1012.4
20260905190049 93 0 0.0 0.0 0.00 0.00 0.00 65 1012.6
20260905184603 94 0 0.0 1.0 0.00 0.01 0.00 57 1012.6
20260905183058 95 0 0.0 1.0 0.00 0.01 0.00 54 1012.8
20260905181604 95 0 0.0 1.0 0.00 0.01 0.00 54 1013.0
20260905180051 94 0 0.0 1.0 0.00 0.01 0.00 58 1013.5
20260905174556 94 0 0.0 2.0 0.00 0.06 0.00 64 1013.8
20260905173056 92 0 0.0 0.0 0.00 0.06 0.00 62 1014.1
20260905171552 91 0 0.0 0.0 0.00 0.06 0.00 69 1014.2
20260905170105 89 0 0.0 0.0 0.00 0.06 0.00 72 1014.3
20260905164555 88 0 0.0 0.0 0.00 0.06 0.00 77 1014.3
20260905163054 90 0 0.0 0.0 0.00 0.06 0.00 73 1014.4
20260905161552 89 0 0.0 0.0 0.00 0.06 0.00 76 1014.4
20260905160115 88 0 0.0 0.0 0.00 0.06 0.00 76 1014.4
20260905154559 87 0 0.0 0.0 0.00 0.06 0.00 80 1014.4
20260905153053 87 0 0.0 0.0 0.00 0.06 0.00 79 1014.5
20260905151604 86 0 0.0 0.0 0.00 0.06 0.00 85 1014.5
20260905150054 84 0 0.0 0.0 0.00 0.06 0.00 86 1014.4
20260905144552 82 0 0.0 0.0 0.00 0.06 0.00 91 1014.3
20260905143055 81 0 0.0 0.0 0.00 0.06 0.00 94 1014.3
20260905141551 79 0 0.0 0.0 0.00 0.06 0.00 94 1014.3
20260905140052 78 0 0.0 0.0 0.00 0.06 0.00 94 1014.4
20260905134610 77 0 0.0 0.0 0.00 0.06 0.00 94 1014.2
20260905133057 76 0 0.0 0.0 0.00 0.06 0.00 94 1014.2
20260905131600 75 0 0.0 0.0 0.00 0.06 0.00 94 1014.2
20260905130051 75 0 0.0 0.0 0.00 0.06 0.00 93 1014.1
20260905124602 75 0 0.0 0.0 0.00 0.06 0.00 93 1013.8
20260905123059 74 0 0.0 0.0 0.00 0.06 0.00 93 1013.8
20260905121556 74 0 0.0 0.0 0.00 0.06 0.00 93 1013.5
20260905120110 74 0 0.0 0.0 0.00 0.06 0.00 93 1013.3
20260905114551 74 0 0.0 0.0 0.00 0.06 0.00 93 1013.3
20260905113057 75 0 0.0 0.0 0.00 0.06 0.00 93 1013.3
20260905111609 75 0 0.0 0.0 0.00 0.06 0.00 93 1013.0
20260905110057 74 0 0.0 0.0 0.00 0.06 0.00 93 1012.9
20260905104600 75 0 0.0 0.0 0.00 0.07 0.00 93 1012.7
20260905103053 75 0 0.0 0.0 0.00 0.07 0.00 93 1012.8
20260905101548 75 0 0.0 0.0 0.00 0.07 0.00 93 1012.7
20260905100056 75 0 0.0 0.0 0.00 0.07 0.00 93 1012.6
20260905094552 75 0 0.0 0.0 0.00 0.07 0.00 92 1012.7
20260905093052 75 0 0.0 0.0 0.00 0.07 0.00 93 1012.7
20260905091614 75 0 0.0 0.0 0.00 0.07 0.00 93 1012.7
20260905090117 75 0 0.0 0.0 0.00 0.07 0.00 93 1012.7
20260905084605 75 0 0.0 0.0 0.00 0.07 0.00 93 1012.6
20260905083053 75 0 0.0 0.0 0.00 0.07 0.00 92 1012.6
20260905081551 75 0 0.0 0.0 0.00 0.07 0.00 92 1012.6
20260905080059 76 0 0.0 0.0 0.00 0.07 0.00 92 1012.5
20260905074556 76 0 0.0 0.0 0.00 0.07 0.00 92 1012.7
20260905073059 76 0 0.0 0.0 0.00 0.07 0.00 92 1012.7
20260905071551 76 0 0.0 0.0 0.00 0.07 0.00 92 1013.1
20260905070107 76 0 0.0 0.0 0.00 0.07 0.00 92 1013.1
20260905064554 76 0 0.0 0.0 0.00 0.07 0.00 92 1013.2
20260905063053 76 0 0.0 0.0 0.00 0.07 0.00 92 1013.2
20260905061613 76 0 0.0 0.0 0.00 0.07 0.00 92 1013.2
20260905060109 77 0 0.0 0.0 0.00 0.07 0.00 91 1013.3
20260905054555 77 0 0.0 0.0 0.00 0.07 0.00 91 1013.3
20260905053054 77 0 0.0 0.0 0.00 0.07 0.00 91 1013.2
20260905051604 77 0 0.0 0.0 0.00 0.07 0.00 91 1013.4
20260905050101 77 0 0.0 0.0 0.00 0.07 0.00 91 1013.6
20260905044555 77 0 0.0 0.0 0.00 0.07 0.07 91 1013.4
20260905043051 77 0 0.0 0.0 0.00 0.07 0.07 91 1013.3
20260905041600 77 0 0.0 0.0 0.00 0.07 0.07 91 1013.3
20260905040059 77 0 0.0 0.0 0.00 0.07 0.07 90 1013.4
20260905034605 78 0 0.0 0.0 0.00 0.07 0.07 90 1013.4
20260905033055 78 0 0.0 0.0 0.00 0.07 0.07 90 1013.5
20260905031552 78 0 0.0 0.0 0.00 0.07 0.07 89 1013.5
20260905030125 78 0 0.0 0.0 0.00 0.07 0.07 89 1013.5
20260905024553 79 0 0.0 0.0 0.00 0.07 0.07 89 1013.6
20260905023051 79 0 0.0 0.0 0.00 0.07 0.07 88 1013.5
20260905021557 80 0 0.0 0.0 0.00 0.07 0.07 88 1013.3
20260905020104 80 0 0.0 0.0 0.00 0.07 0.07 89 1013.0
20260905014556 80 0 0.0 0.0 0.00 0.07 0.07 87 1013.0
20260905013052 81 0 0.0 0.0 0.00 0.07 0.07 88 1012.8
20260905011556 81 0 0.0 0.0 0.00 0.07 0.07 88 1012.6
20260905010107 82 0 0.0 0.0 0.00 0.07 0.07 87 1012.5
20260905004558 82 0 0.0 0.0 0.00 0.07 0.07 88 1012.3
20260905003055 83 0 0.0 0.0 0.00 0.07 0.07 87 1012.2
20260905001601 83 0 0.0 0.0 0.00 0.07 0.07 87 1012.1
20260905000112 84 0 0.0 0.0 0.00 0.07 0.07 86 1012.2